Willimantic, CT

6:19 PM EDT on September 21, 2019 (GMT -0400)
Windham

Weather History for KIJD - August, 2019

Change the Weather History Date:

Friday, August 23, 2019

  Actual Average Record
Temperature  
Mean Temperature 68 °F -  
Max Temperature 75 °F 79 °F 93 °F (1976)
Min Temperature 60 °F 53 °F 39 °F (1957)
Cooling Degree Days 4    
Growing Degree Days 18 (Base 50)    
Moisture  
Dew Point 61 °F    
Average Humidity 78    
Maximum Humidity 93    
Minimum Humidity 53    
Precipitation  
Precipitation 0.04 in - - ()
Sea Level Pressure  
Sea Level Pressure 29.98 in    
Wind  
Wind Speed 3 mph ()    
Max Wind Speed 9 mph    
Max Gust Speed -    
Visibility 9.9 miles    
Events Rain    
Averages and records for this station are not official NWS values.
T = Trace of Precipitation, MM = Missing Value Source: Averaged Metar Reports

Daily Weather History Graph

Daily Weather History Graph

Search for Another Location

Airport or City:

Astronomy

Aug. 23, 2019 Rise Set
Actual Time 6:05 AM EDT 7:36 PM EDT
Civil Twilight 5:35 AM EDT 8:06 PM EDT
Nautical Twilight 5:00 AM EDT 8:41 PM EDT
Astronomical Twilight 4:22 AM EDT 9:18 PM EDT
Moon 11:55 PM EDT (8/23) 1:45 PM EDT (8/23)
Length of Visible Light 14h 30m
Length of Day
13h 31m
Waning Gibbous, 50% of the Moon is Illuminated
Aug 23
Waning Gibbous
Aug 30
New
Sep 5
First Quarter
Sep 14
Full
Sep 21
Last Quarter

Hourly Weather History & Observations

Time (EDT) Temp. Dew Point Humidity Pressure Visibility Wind Dir Wind Speed Gust Speed Precip Events Conditions
12:52 AM 73.0 °F 70.0 °F 90% 29.92 in 10.0 mi West 3.5 mph - 0.00 in   Overcast
1:52 AM 72.0 °F 68.0 °F 87% 29.91 in 10.0 mi Calm Calm - N/A   Overcast
2:52 AM 71.1 °F 61.0 °F 70% 29.91 in 10.0 mi NNW 9.2 mph - N/A   Overcast
3:52 AM 69.1 °F 57.9 °F 68% 29.92 in 10.0 mi North 5.8 mph - N/A   Overcast
4:52 AM 66.0 °F 61.0 °F 84% 29.93 in 10.0 mi Calm Calm - 0.01 in Rain Light Rain
5:52 AM 64.9 °F 63.0 °F 93% 29.95 in 10.0 mi Calm Calm - 0.01 in Rain Light Rain
6:52 AM 64.9 °F 63.0 °F 93% 29.96 in 10.0 mi Calm Calm - 0.00 in Rain Light Rain
7:52 AM 64.9 °F 63.0 °F 93% 29.99 in 7.0 mi Calm Calm - 0.00 in Rain Light Rain
8:52 AM 64.9 °F 63.0 °F 93% 30.00 in 10.0 mi WSW 3.5 mph - 0.02 in Rain Light Rain
9:52 AM 64.9 °F 63.0 °F 93% 30.01 in 10.0 mi SW 4.6 mph - 0.00 in   Mostly Cloudy
10:52 AM 69.1 °F 63.0 °F 81% 30.00 in 10.0 mi West 4.6 mph - 0.00 in   Clear
11:52 AM 71.1 °F 62.1 °F 73% 29.99 in 10.0 mi Calm Calm - N/A   Clear
12:52 PM 73.0 °F 57.9 °F 59% 29.98 in 10.0 mi NNW 4.6 mph - N/A   Clear
1:52 PM 73.9 °F 57.0 °F 55% 29.97 in 10.0 mi North 4.6 mph - N/A   Partly Cloudy
2:52 PM 73.0 °F 57.9 °F 59% 29.98 in 10.0 mi NW 3.5 mph - N/A   Clear
3:52 PM 75.0 °F 57.0 °F 53% 29.99 in 10.0 mi NNW 3.5 mph - N/A   Clear
4:52 PM 75.0 °F 57.9 °F 55% 29.98 in 10.0 mi Calm Calm - N/A   Clear
5:52 PM 73.0 °F 60.1 °F 64% 29.97 in 10.0 mi Calm Calm - N/A   Clear
6:52 PM 71.1 °F 61.0 °F 70% 29.98 in 10.0 mi Calm Calm - N/A   Clear
7:52 PM 69.1 °F 63.0 °F 81% 30.00 in 10.0 mi North 3.5 mph - N/A   Clear
8:52 PM 66.0 °F 63.0 °F 90% 30.02 in 10.0 mi North 4.6 mph - N/A   Clear
9:52 PM 64.0 °F 61.0 °F 90% 30.03 in 10.0 mi North 4.6 mph - N/A   Clear
10:52 PM 62.1 °F 59.0 °F 90% 30.04 in 10.0 mi North 5.8 mph - N/A   Clear
11:52 PM 60.1 °F 57.9 °F 93% 30.07 in 10.0 mi North 3.5 mph - N/A   Clear